Location: Rancho Santa Fe Post Office
(33.0184°N, 117.2026°W)
Time: 01:55:06
(UTC+00:00)

NOSS 3-2 (C) - Pass Details

Date: 10 September 2024
Orbit: 699 x 1512 km, 63.4° (Epoch: 06 October)

Event Time Altitude Azimuth Distance (km) Brightness Sun altitude
Exits shadow 12:18:02 10° 202° (SSW) 2,158 5.0 -15.5°
Maximum altitude 12:22:51 75° 118° (ESE) 784 3.1 -14.6°
Drops below altitude 10° 12:28:23 10° 33° (NNE) 2,469 6.4 -13.4°
Sets 12:31:04 0° 32° (NNE) 3,520 7.2 -12.9°
